MBU9AG EDDP-GCTS

Flight info

Callsign MBU9AG
Flight time N/A
Altitude 37000
Route GOLAT2S/26L GOLAT DCT KOMIB DCT NOSPA DCT IDOSA DCT GIMER DCT PON DCT ERIGA DCT BAKUP DCT BATAX DCT BEXAL DCT KONBA
Aircraft A20N/M-SDE2E3FGHIRWXY/LB1

Departure

Time 2026-05-06 08:02
Airport Leipzig/Halle Airport (EDDP)

Arrival

Time N/A
Airport Tenerife Sur Airport (GCTS)
Time Latitude Longitude Altitude Speed Heading
2026-05-06 08:02 51.41665 11.96295 8327 ft 266 kts 245°
2026-05-06 08:02 51.40550 11.93939 9005 ft 271 kts 219°
2026-05-06 08:03 51.38959 11.92380 9707 ft 273 kts 212°
2026-05-06 08:03 51.37281 11.90852 10291 ft 280 kts 212°
2026-05-06 08:03 51.35566 11.89263 10590 ft 296 kts 212°
2026-05-06 08:03 51.33883 11.87273 10849 ft 310 kts 231°
2026-05-06 08:04 51.32854 11.84199 11143 ft 323 kts 250°
2026-05-06 08:04 51.32149 11.80760 11602 ft 332 kts 252°
2026-05-06 08:04 51.31441 11.77222 12221 ft 335 kts 251°
2026-05-06 08:04 51.30712 11.73714 12809 ft 339 kts 251°
2026-05-06 08:05 51.29940 11.70127 13312 ft 345 kts 250°
2026-05-06 08:05 51.29143 11.66511 13862 ft 348 kts 250°
2026-05-06 08:05 51.28324 11.62854 14445 ft 351 kts 250°
2026-05-06 08:05 51.27494 11.59189 15022 ft 354 kts 250°
2026-05-06 08:06 51.26654 11.55500 15562 ft 357 kts 249°
2026-05-06 08:06 51.25807 11.51803 16106 ft 360 kts 249°
2026-05-06 08:06 51.24945 11.48052 16623 ft 363 kts 249°
2026-05-06 08:06 51.24069 11.44256 17138 ft 366 kts 249°
2026-05-06 08:07 51.23189 11.40451 17629 ft 369 kts 249°
2026-05-06 08:07 51.22295 11.36594 18112 ft 372 kts 249°
2026-05-06 08:07 51.21399 11.32734 18603 ft 374 kts 248°
2026-05-06 08:07 51.20497 11.28857 19080 ft 377 kts 248°
2026-05-06 08:08 51.19582 11.24935 19551 ft 380 kts 248°
2026-05-06 08:08 51.18660 11.20992 19988 ft 384 kts 248°
2026-05-06 08:08 51.17720 11.16974 20436 ft 387 kts 248°
2026-05-06 08:08 51.16783 11.12982 20872 ft 390 kts 248°
2026-05-06 08:09 51.15822 11.08894 21304 ft 394 kts 248°
2026-05-06 08:09 51.14859 11.04806 21729 ft 397 kts 248°
2026-05-06 08:09 51.13886 11.00681 22174 ft 400 kts 248°
2026-05-06 08:09 51.12916 10.96579 22598 ft 403 kts 248°
2026-05-06 08:10 51.11926 10.92400 23017 ft 405 kts 248°
2026-05-06 08:10 51.10925 10.88188 23417 ft 409 kts 248°
2026-05-06 08:10 51.09918 10.83953 23830 ft 411 kts 248°
2026-05-06 08:10 51.08897 10.79671 24254 ft 413 kts 248°
2026-05-06 08:11 51.07881 10.75414 24658 ft 415 kts 248°
2026-05-06 08:11 51.06858 10.71131 25072 ft 416 kts 248°
2026-05-06 08:11 51.05828 10.66833 25472 ft 418 kts 248°
2026-05-06 08:11 51.04799 10.62546 25847 ft 419 kts 248°
2026-05-06 08:12 51.03761 10.58234 26208 ft 420 kts 248°
2026-05-06 08:12 51.02720 10.53917 26538 ft 422 kts 248°
2026-05-06 08:12 51.01659 10.49523 26848 ft 424 kts 248°
2026-05-06 08:12 51.00614 10.45210 27142 ft 426 kts 248°
2026-05-06 08:13 50.99542 10.40790 27434 ft 428 kts 248°
2026-05-06 08:13 50.98472 10.36388 27719 ft 430 kts 248°
2026-05-06 08:13 50.97391 10.31951 28004 ft 431 kts 247°
2026-05-06 08:13 50.96320 10.27562 28364 ft 430 kts 247°
2026-05-06 08:14 50.95248 10.23176 28754 ft 427 kts 247°
2026-05-06 08:14 50.94167 10.18761 29109 ft 426 kts 247°
2026-05-06 08:14 50.93103 10.14423 29424 ft 425 kts 247°
2026-05-06 08:14 50.92029 10.10056 29741 ft 424 kts 247°
2026-05-06 08:15 50.90970 10.05755 30031 ft 424 kts 247°
2026-05-06 08:15 50.89891 10.01388 30312 ft 423 kts 247°
2026-05-06 08:15 50.88833 9.97105 30603 ft 422 kts 247°
2026-05-06 08:15 50.87756 9.92755 30883 ft 421 kts 247°
2026-05-06 08:16 50.86689 9.88462 31135 ft 420 kts 247°
2026-05-06 08:16 50.85619 9.84159 31350 ft 420 kts 247°
2026-05-06 08:16 50.84543 9.79844 31534 ft 421 kts 247°
2026-05-06 08:16 50.83482 9.75598 31735 ft 421 kts 247°
2026-05-06 08:17 50.82406 9.71292 31941 ft 421 kts 247°
2026-05-06 08:17 50.81333 9.67016 32144 ft 420 kts 247°
2026-05-06 08:17 50.80256 9.62729 32310 ft 421 kts 247°
2026-05-06 08:17 50.79180 9.58454 32493 ft 421 kts 246°
2026-05-06 08:18 50.78095 9.54149 32699 ft 421 kts 247°
2026-05-06 08:18 50.77008 9.49850 32878 ft 421 kts 247°
2026-05-06 08:18 50.75923 9.45570 33023 ft 422 kts 247°
2026-05-06 08:18 50.74833 9.41272 33147 ft 422 kts 247°
2026-05-06 08:19 50.73751 9.37018 33316 ft 421 kts 247°
2026-05-06 08:19 50.72654 9.32708 33460 ft 421 kts 246°
2026-05-06 08:19 50.70480 9.24190 33713 ft 421 kts 246°
2026-05-06 08:20 50.69394 9.19950 33855 ft 420 kts 246°
2026-05-06 08:20 50.68286 9.15632 33961 ft 421 kts 246°
2026-05-06 08:20 50.67202 9.11416 34068 ft 421 kts 246°
2026-05-06 08:20 50.66104 9.07153 34197 ft 420 kts 246°
2026-05-06 08:21 50.65007 9.02900 34318 ft 420 kts 246°
2026-05-06 08:21 50.63903 8.98630 34440 ft 420 kts 246°
2026-05-06 08:21 50.62804 8.94384 34568 ft 420 kts 246°
2026-05-06 08:21 50.61714 8.90183 34699 ft 420 kts 246°
2026-05-06 08:22 50.60605 8.85916 34809 ft 420 kts 246°
2026-05-06 08:22 50.59508 8.81707 34932 ft 420 kts 246°
2026-05-06 08:22 50.58398 8.77449 35059 ft 419 kts 246°
2026-05-06 08:22 50.57299 8.73247 35193 ft 419 kts 246°
2026-05-06 08:23 50.56182 8.68978 35321 ft 419 kts 246°
2026-05-06 08:23 50.55076 8.64767 35425 ft 419 kts 246°
2026-05-06 08:23 50.53974 8.60572 35540 ft 419 kts 246°
2026-05-06 08:23 50.52862 8.56352 35651 ft 418 kts 246°
2026-05-06 08:24 50.51760 8.52175 35757 ft 418 kts 246°
2026-05-06 08:24 50.50651 8.47977 35857 ft 418 kts 246°
2026-05-06 08:24 50.49543 8.43793 35960 ft 417 kts 246°
2026-05-06 08:24 50.48431 8.39595 36053 ft 417 kts 246°
2026-05-06 08:25 50.46199 8.31207 36223 ft 417 kts 245°
2026-05-06 08:25 50.43963 8.22832 36396 ft 417 kts 245°
2026-05-06 08:26 50.41723 8.14472 36518 ft 418 kts 245°
2026-05-06 08:26 50.39485 8.06151 36616 ft 419 kts 245°
2026-05-06 08:27 50.37215 7.97739 36726 ft 420 kts 245°
2026-05-06 08:27 50.34930 7.89304 36728 ft 421 kts 245°
2026-05-06 08:28 50.32646 7.80902 36735 ft 420 kts 245°
2026-05-06 08:28 50.30373 7.72570 36747 ft 420 kts 245°
2026-05-06 08:29 50.28072 7.64163 36749 ft 420 kts 245°
2026-05-06 08:29 50.25779 7.55817 36754 ft 421 kts 245°
2026-05-06 08:30 50.23466 7.47430 36750 ft 422 kts 245°
2026-05-06 08:30 50.21144 7.39041 36751 ft 422 kts 245°
2026-05-06 08:31 50.18823 7.30682 36748 ft 422 kts 245°
2026-05-06 08:31 50.16478 7.22270 36755 ft 423 kts 245°
2026-05-06 08:32 50.14152 7.13952 36753 ft 422 kts 245°
2026-05-06 08:32 50.11794 7.05551 36754 ft 423 kts 245°
2026-05-06 08:33 50.09449 6.97222 36757 ft 423 kts 245°
2026-05-06 08:33 50.07082 6.88850 36765 ft 423 kts 245°
2026-05-06 08:34 50.03534 6.76350 36771 ft 423 kts 245°
2026-05-06 08:35 50.01053 6.68099 36772 ft 422 kts 242°
2026-05-06 08:35 49.98402 6.59989 36768 ft 423 kts 242°
2026-05-06 08:36 49.95746 6.51882 36754 ft 424 kts 242°
2026-05-06 08:36 49.93062 6.43720 36751 ft 424 kts 242°
2026-05-06 08:37 49.90391 6.35623 36755 ft 424 kts 242°
2026-05-06 08:37 49.87683 6.27442 36756 ft 424 kts 241°
2026-05-06 08:38 49.85003 6.19370 36753 ft 424 kts 241°
2026-05-06 08:38 49.82301 6.11251 36759 ft 424 kts 241°
2026-05-06 08:39 49.79612 6.03202 36771 ft 424 kts 241°
2026-05-06 08:39 49.76904 5.95132 36771 ft 424 kts 241°
2026-05-06 08:40 49.74411 5.86887 36771 ft 426 kts 246°
2026-05-06 08:40 49.72490 5.78212 36773 ft 428 kts 252°
2026-05-06 08:41 49.70818 5.69417 36771 ft 429 kts 252°
2026-05-06 08:41 49.69141 5.60616 36770 ft 429 kts 252°
2026-05-06 08:42 49.67456 5.51827 36774 ft 429 kts 252°
2026-05-06 08:42 49.65762 5.43034 36770 ft 429 kts 252°
2026-05-06 08:43 49.64059 5.34235 36776 ft 430 kts 251°
2026-05-06 08:43 49.62338 5.25387 36773 ft 429 kts 251°
2026-05-06 08:44 49.60620 5.16599 36780 ft 430 kts 251°
2026-05-06 08:44 49.58903 5.07854 36783 ft 431 kts 251°
2026-05-06 08:45 49.57161 4.99014 36789 ft 432 kts 251°
2026-05-06 08:45 49.55415 4.90203 36790 ft 432 kts 251°
2026-05-06 08:46 49.53669 4.81425 36791 ft 432 kts 251°
2026-05-06 08:46 49.51907 4.72610 36796 ft 432 kts 251°
2026-05-06 08:47 49.50144 4.63828 36800 ft 433 kts 251°
2026-05-06 08:47 49.48359 4.54977 36808 ft 433 kts 252°
2026-05-06 08:48 49.46582 4.46200 36811 ft 433 kts 251°
2026-05-06 08:48 49.44790 4.37399 36815 ft 433 kts 251°
2026-05-06 08:49 49.42986 4.28571 36815 ft 434 kts 251°
2026-05-06 08:49 49.41173 4.19734 36821 ft 434 kts 251°
2026-05-06 08:50 49.39358 4.10933 36825 ft 435 kts 251°
2026-05-06 08:50 49.37534 4.02130 36823 ft 436 kts 251°
2026-05-06 08:51 49.35989 3.93126 36826 ft 437 kts 257°
2026-05-06 08:51 49.34795 3.84036 36821 ft 438 kts 257°
2026-05-06 08:52 49.33601 3.74928 36829 ft 438 kts 257°
2026-05-06 08:52 49.32397 3.65828 36836 ft 438 kts 257°
2026-05-06 08:53 49.31187 3.56743 36831 ft 438 kts 257°
2026-05-06 08:53 49.29963 3.47619 36830 ft 438 kts 257°
2026-05-06 08:54 49.28735 3.38519 36841 ft 439 kts 258°
2026-05-06 08:54 49.27494 3.29372 36836 ft 439 kts 257°
2026-05-06 08:55 49.26244 3.20227 36841 ft 439 kts 257°
2026-05-06 08:55 49.24997 3.11170 36842 ft 439 kts 257°
2026-05-06 08:56 49.23734 3.02049 36839 ft 439 kts 257°
2026-05-06 08:56 49.22466 2.92938 36845 ft 439 kts 257°
2026-05-06 08:57 49.21197 2.83884 36845 ft 439 kts 257°
2026-05-06 08:57 49.19913 2.74777 36847 ft 440 kts 257°
2026-05-06 08:58 49.18624 2.65684 36854 ft 440 kts 257°
2026-05-06 08:58 49.17324 2.56570 36855 ft 440 kts 257°
2026-05-06 08:59 49.16014 2.47441 36865 ft 440 kts 257°
2026-05-06 08:59 49.14700 2.38349 36859 ft 440 kts 257°
2026-05-06 09:00 49.13379 2.29247 36865 ft 440 kts 256°
2026-05-06 09:00 49.12051 2.20172 36878 ft 440 kts 256°
2026-05-06 09:01 49.10515 2.11174 36883 ft 440 kts 251°
2026-05-06 09:01 49.08234 2.02524 36884 ft 440 kts 243°
2026-05-06 09:02 49.05228 1.94425 36886 ft 441 kts 236°
2026-05-06 09:02 49.01704 1.86839 36891 ft 440 kts 234°
2026-05-06 09:03 48.98155 1.79333 36897 ft 440 kts 234°
2026-05-06 09:03 48.94577 1.71778 36893 ft 440 kts 234°
2026-05-06 09:04 48.91009 1.64258 36894 ft 440 kts 234°
2026-05-06 09:04 48.87451 1.56778 36893 ft 440 kts 234°
2026-05-06 09:05 48.83866 1.49263 36901 ft 440 kts 234°
2026-05-06 09:05 48.80271 1.41746 36902 ft 441 kts 234°
2026-05-06 09:06 48.76680 1.34258 36897 ft 441 kts 233°
2026-05-06 09:06 48.73094 1.26803 36916 ft 441 kts 233°
2026-05-06 09:07 48.69486 1.19321 36901 ft 441 kts 233°
2026-05-06 09:07 48.65873 1.11851 36903 ft 442 kts 233°
2026-05-06 09:08 48.62236 1.04351 36884 ft 444 kts 234°
2026-05-06 09:08 48.58603 0.96880 36897 ft 444 kts 234°
2026-05-06 09:09 48.54951 0.89391 36874 ft 443 kts 234°
2026-05-06 09:09 48.51295 0.81913 36894 ft 445 kts 234°
2026-05-06 09:10 48.47626 0.74431 36886 ft 446 kts 234°
2026-05-06 09:10 48.43933 0.66920 36897 ft 446 kts 234°
2026-05-06 09:11 48.40271 0.59493 36895 ft 446 kts 234°
2026-05-06 09:11 48.36591 0.52049 36893 ft 445 kts 234°
2026-05-06 09:12 48.32881 0.44568 36884 ft 446 kts 234°
2026-05-06 09:12 48.29202 0.37167 36896 ft 446 kts 234°
2026-05-06 09:13 48.25464 0.29669 36904 ft 446 kts 233°
2026-05-06 09:13 48.21765 0.22268 36904 ft 447 kts 233°
2026-05-06 09:14 48.18033 0.14822 36905 ft 448 kts 233°
2026-05-06 09:14 48.14293 0.07382 36893 ft 447 kts 233°
2026-05-06 09:15 48.10563 -0.00020 36898 ft 448 kts 233°
2026-05-06 09:15 48.06827 -0.07409 36917 ft 448 kts 233°
2026-05-06 09:16 48.03078 -0.14807 36922 ft 449 kts 233°
2026-05-06 09:16 47.99305 -0.22231 36906 ft 448 kts 233°
2026-05-06 09:17 47.95558 -0.29583 36909 ft 448 kts 233°
2026-05-06 09:17 47.91788 -0.36964 36907 ft 448 kts 233°
2026-05-06 09:18 47.88011 -0.44337 36918 ft 448 kts 233°
2026-05-06 09:18 47.84235 -0.51688 36906 ft 449 kts 233°
2026-05-06 09:19 47.80447 -0.59041 36912 ft 449 kts 233°
2026-05-06 09:19 47.76662 -0.66365 36915 ft 449 kts 232°
2026-05-06 09:20 47.72865 -0.73699 36927 ft 448 kts 232°
2026-05-06 09:20 47.69069 -0.81011 36905 ft 448 kts 232°
2026-05-06 09:21 47.65286 -0.88279 36935 ft 448 kts 232°
2026-05-06 09:21 47.61478 -0.95573 36931 ft 448 kts 232°
2026-05-06 09:22 47.57662 -1.02863 36905 ft 449 kts 232°
2026-05-06 09:22 47.53851 -1.10124 36918 ft 448 kts 232°
2026-05-06 09:23 47.50041 -1.17362 36911 ft 448 kts 233°
2026-05-06 09:23 47.46222 -1.24602 36898 ft 448 kts 233°
2026-05-06 09:24 47.42401 -1.31822 36930 ft 448 kts 233°
2026-05-06 09:24 47.38570 -1.39048 36902 ft 448 kts 233°
2026-05-06 09:25 47.34739 -1.46252 36911 ft 449 kts 233°
2026-05-06 09:25 47.30914 -1.53424 36918 ft 449 kts 233°
2026-05-06 09:26 47.27050 -1.60652 36915 ft 449 kts 233°
2026-05-06 09:26 47.23195 -1.67845 36904 ft 449 kts 232°
2026-05-06 09:27 47.19344 -1.75012 36926 ft 449 kts 232°
2026-05-06 09:27 47.15467 -1.82207 36928 ft 449 kts 232°
2026-05-06 09:28 47.11608 -1.89350 36915 ft 449 kts 232°
2026-05-06 09:28 47.07735 -1.96499 36919 ft 449 kts 232°
2026-05-06 09:29 47.03879 -2.03604 36910 ft 448 kts 232°
2026-05-06 09:29 46.99986 -2.10757 36914 ft 448 kts 232°
2026-05-06 09:30 46.96101 -2.17875 36907 ft 448 kts 232°
2026-05-06 09:30 46.92223 -2.24959 36909 ft 448 kts 232°
2026-05-06 09:31 46.88096 -2.31783 36915 ft 449 kts 226°
2026-05-06 09:31 46.83482 -2.37817 36916 ft 449 kts 219°
2026-05-06 09:32 46.78386 -2.43053 36923 ft 449 kts 212°
2026-05-06 09:32 46.73073 -2.47753 36915 ft 449 kts 212°
2026-05-06 09:33 46.67755 -2.52458 36928 ft 449 kts 212°
2026-05-06 09:33 46.62435 -2.57159 36933 ft 448 kts 212°
2026-05-06 09:34 46.57119 -2.61846 36919 ft 448 kts 212°
2026-05-06 09:34 46.51791 -2.66536 36923 ft 448 kts 212°
2026-05-06 09:35 46.46470 -2.71207 36925 ft 448 kts 212°
2026-05-06 09:35 46.41131 -2.75883 36929 ft 448 kts 212°
2026-05-06 09:36 46.35829 -2.80516 36934 ft 448 kts 212°
2026-05-06 09:36 46.30486 -2.85174 36933 ft 448 kts 212°
2026-05-06 09:37 46.25186 -2.89785 36930 ft 448 kts 212°
2026-05-06 09:37 46.19862 -2.94408 36928 ft 448 kts 212°
2026-05-06 09:38 46.14528 -2.99026 36935 ft 448 kts 212°
2026-05-06 09:38 46.09185 -3.03641 36936 ft 447 kts 212°
2026-05-06 09:39 46.03873 -3.08220 36926 ft 447 kts 212°
2026-05-06 09:39 45.98536 -3.12809 36932 ft 447 kts 212°
2026-05-06 09:40 45.93221 -3.17370 36932 ft 447 kts 212°
2026-05-06 09:40 45.85237 -3.24200 36929 ft 447 kts 212°
2026-05-06 09:41 45.79891 -3.28762 36931 ft 447 kts 212°
2026-05-06 09:41 45.74553 -3.33308 36932 ft 447 kts 212°
2026-05-06 09:42 45.69232 -3.37828 36939 ft 449 kts 212°
2026-05-06 09:42 45.63845 -3.42394 36939 ft 453 kts 212°
2026-05-06 09:43 45.58411 -3.46987 36941 ft 457 kts 212°
2026-05-06 09:43 45.52922 -3.51617 36947 ft 460 kts 212°
2026-05-06 09:44 45.47420 -3.56250 36954 ft 462 kts 212°
2026-05-06 09:44 45.41885 -3.60899 36960 ft 465 kts 212°
2026-05-06 09:45 45.36322 -3.65559 36956 ft 466 kts 211°
2026-05-06 09:45 45.30736 -3.70228 36958 ft 466 kts 212°
2026-05-06 09:46 45.25163 -3.74875 36972 ft 466 kts 212°
2026-05-06 09:46 45.19612 -3.79494 36966 ft 466 kts 212°
2026-05-06 09:47 45.14012 -3.84143 36969 ft 465 kts 212°
2026-05-06 09:47 45.08453 -3.88749 36969 ft 465 kts 212°
2026-05-06 09:48 45.02868 -3.93365 36973 ft 465 kts 212°
2026-05-06 09:48 44.97305 -3.97952 36975 ft 465 kts 211°
2026-05-06 09:49 44.91719 -4.02545 36975 ft 465 kts 212°
2026-05-06 09:49 44.86134 -4.07127 36973 ft 466 kts 212°
2026-05-06 09:50 44.80555 -4.11698 36971 ft 464 kts 212°
2026-05-06 09:50 44.74984 -4.16251 36973 ft 463 kts 212°
2026-05-06 09:51 44.69420 -4.20787 36974 ft 463 kts 212°
2026-05-06 09:51 44.63863 -4.25308 36975 ft 465 kts 212°
2026-05-06 09:52 44.58278 -4.29841 36976 ft 466 kts 212°
2026-05-06 09:52 44.52667 -4.34386 36974 ft 466 kts 212°
2026-05-06 09:53 44.47053 -4.38923 36976 ft 466 kts 212°
2026-05-06 09:53 44.41457 -4.43434 36975 ft 465 kts 212°
2026-05-06 09:54 44.35944 -4.48049 36977 ft 464 kts 213°
2026-05-06 09:54 44.30443 -4.52732 36979 ft 464 kts 213°
2026-05-06 09:55 44.24946 -4.57388 36982 ft 464 kts 213°
2026-05-06 09:55 44.19413 -4.62057 36980 ft 464 kts 213°
2026-05-06 09:56 44.13880 -4.66712 36984 ft 464 kts 213°
2026-05-06 09:56 44.08364 -4.71340 36985 ft 464 kts 213°
2026-05-06 09:57 44.02872 -4.75939 36985 ft 464 kts 213°
2026-05-06 09:57 43.97351 -4.80554 36984 ft 463 kts 213°
2026-05-06 09:58 43.91824 -4.85160 36981 ft 463 kts 213°
2026-05-06 09:58 43.86304 -4.89753 36987 ft 463 kts 213°
2026-05-06 09:59 43.80794 -4.94327 36987 ft 463 kts 213°
2026-05-06 09:59 43.75251 -4.98917 36983 ft 463 kts 213°
2026-05-06 10:00 43.69745 -5.03466 36983 ft 463 kts 213°
2026-05-06 10:00 43.64226 -5.08018 36980 ft 462 kts 213°
2026-05-06 10:01 43.58733 -5.12539 36979 ft 462 kts 213°
2026-05-06 10:01 43.53243 -5.17047 36681 ft 461 kts 213°
2026-05-06 10:02 43.50507 -5.19288 36841 ft 458 kts 213°
2026-05-06 10:02 43.47776 -5.21524 36915 ft 458 kts 213°
2026-05-06 10:02 43.42308 -5.25999 36968 ft 459 kts 213°
2026-05-06 10:03 43.36824 -5.30471 36981 ft 460 kts 213°
2026-05-06 10:03 43.31298 -5.34970 36986 ft 461 kts 213°
2026-05-06 10:04 43.25790 -5.39445 36987 ft 462 kts 213°
2026-05-06 10:04 43.20264 -5.43923 36991 ft 461 kts 213°
2026-05-06 10:05 43.14782 -5.48359 36993 ft 461 kts 213°
2026-05-06 10:05 43.09285 -5.52797 36990 ft 459 kts 213°
2026-05-06 10:06 43.03776 -5.57233 36976 ft 459 kts 213°
2026-05-06 10:06 42.98291 -5.61644 36957 ft 460 kts 213°
2026-05-06 10:07 42.92743 -5.66092 36968 ft 460 kts 213°
2026-05-06 10:07 42.87241 -5.70496 36977 ft 460 kts 213°
2026-05-06 10:08 42.81736 -5.74894 36984 ft 459 kts 213°
2026-05-06 10:08 42.76266 -5.79257 36989 ft 459 kts 213°
2026-05-06 10:09 42.70750 -5.83644 36995 ft 458 kts 213°
2026-05-06 10:09 42.65270 -5.87994 36999 ft 457 kts 213°
2026-05-06 10:10 42.59799 -5.92329 36997 ft 457 kts 213°
2026-05-06 10:10 42.54298 -5.96677 36992 ft 458 kts 213°
2026-05-06 10:11 42.48835 -6.00987 36994 ft 457 kts 213°
2026-05-06 10:11 42.43341 -6.05313 36988 ft 457 kts 213°
2026-05-06 10:12 42.37850 -6.09627 36981 ft 456 kts 213°
2026-05-06 10:12 42.32394 -6.13905 36975 ft 455 kts 213°
2026-05-06 10:13 42.26941 -6.18174 36969 ft 455 kts 213°
2026-05-06 10:13 42.21459 -6.22455 36966 ft 455 kts 213°
2026-05-06 10:14 42.15982 -6.26724 36962 ft 455 kts 213°
2026-05-06 10:14 42.10510 -6.30981 36957 ft 455 kts 213°
2026-05-06 10:15 42.05045 -6.35223 36958 ft 455 kts 213°
2026-05-06 10:15 41.99583 -6.39455 36959 ft 455 kts 213°
2026-05-06 10:16 41.94111 -6.43686 36959 ft 454 kts 213°
2026-05-06 10:16 41.88632 -6.47915 36961 ft 455 kts 213°
2026-05-06 10:17 41.83141 -6.52145 36963 ft 454 kts 213°
2026-05-06 10:17 41.77699 -6.56328 36961 ft 454 kts 213°
2026-05-06 10:18 41.72230 -6.60525 36966 ft 454 kts 213°
2026-05-06 10:18 41.66937 -6.65091 36971 ft 452 kts 217°
2026-05-06 10:19 41.61778 -6.69879 36970 ft 452 kts 217°
2026-05-06 10:19 41.56588 -6.74685 36973 ft 452 kts 217°
2026-05-06 10:20 41.51447 -6.79438 36968 ft 452 kts 217°
2026-05-06 10:20 41.46273 -6.84214 36970 ft 452 kts 217°
2026-05-06 10:21 41.41120 -6.88962 36968 ft 453 kts 217°
2026-05-06 10:21 41.35937 -6.93727 36967 ft 452 kts 217°
2026-05-06 10:22 41.30789 -6.98450 36936 ft 452 kts 217°
2026-05-06 10:22 41.25636 -7.03170 36958 ft 452 kts 217°
2026-05-06 10:23 41.20444 -7.07919 36965 ft 452 kts 217°
2026-05-06 10:23 41.15300 -7.12612 36963 ft 452 kts 217°
2026-05-06 10:24 41.10125 -7.17323 36963 ft 452 kts 217°
2026-05-06 10:24 41.04957 -7.22020 36968 ft 451 kts 217°
2026-05-06 10:25 40.99778 -7.26716 36972 ft 451 kts 217°
2026-05-06 10:25 40.94639 -7.31370 36971 ft 451 kts 217°
2026-05-06 10:26 40.89428 -7.36081 36969 ft 451 kts 217°
2026-05-06 10:26 40.84270 -7.40734 36967 ft 450 kts 217°
2026-05-06 10:27 40.79087 -7.45399 36967 ft 451 kts 217°
2026-05-06 10:27 40.73922 -7.50039 36966 ft 451 kts 217°
2026-05-06 10:28 40.68767 -7.54661 36963 ft 450 kts 217°
2026-05-06 10:28 40.63571 -7.59310 36964 ft 450 kts 217°
2026-05-06 10:29 40.58405 -7.63924 36965 ft 450 kts 217°
2026-05-06 10:29 40.53237 -7.68532 36968 ft 450 kts 216°
2026-05-06 10:30 40.48064 -7.73136 36966 ft 450 kts 216°
2026-05-06 10:30 40.42879 -7.77740 36967 ft 450 kts 216°
2026-05-06 10:31 40.37709 -7.82323 36966 ft 450 kts 216°
2026-05-06 10:31 40.32547 -7.86892 36968 ft 449 kts 216°
2026-05-06 10:32 40.27348 -7.91481 36963 ft 450 kts 216°
2026-05-06 10:32 40.22167 -7.96049 36956 ft 450 kts 216°
2026-05-06 10:33 40.16985 -8.00610 36953 ft 450 kts 216°
2026-05-06 10:33 40.11804 -8.05159 36952 ft 450 kts 216°
2026-05-06 10:34 40.06635 -8.09689 36946 ft 450 kts 216°
2026-05-06 10:34 40.01421 -8.14250 36952 ft 449 kts 216°
2026-05-06 10:35 39.96254 -8.18762 36949 ft 449 kts 216°
2026-05-06 10:35 39.91075 -8.23276 36954 ft 449 kts 216°
2026-05-06 10:36 39.85865 -8.27810 36954 ft 449 kts 216°
2026-05-06 10:36 39.80671 -8.32321 36959 ft 449 kts 216°
2026-05-06 10:37 39.75482 -8.36818 36955 ft 449 kts 216°
2026-05-06 10:37 39.70301 -8.41301 36963 ft 450 kts 216°
2026-05-06 10:38 39.65095 -8.45797 36967 ft 450 kts 216°
2026-05-06 10:38 39.59901 -8.50274 36969 ft 449 kts 216°
2026-05-06 10:39 39.54729 -8.54724 36973 ft 449 kts 216°
2026-05-06 10:39 39.49523 -8.59195 36973 ft 449 kts 216°
2026-05-06 10:40 39.44336 -8.63644 36975 ft 449 kts 216°
2026-05-06 10:40 39.39105 -8.68119 36975 ft 449 kts 216°
2026-05-06 10:41 39.33907 -8.72560 36976 ft 449 kts 216°
2026-05-06 10:41 39.28706 -8.76992 36977 ft 449 kts 216°
2026-05-06 10:42 39.23508 -8.81415 36976 ft 449 kts 216°
2026-05-06 10:42 39.18302 -8.85838 36977 ft 449 kts 216°
2026-05-06 10:43 39.13092 -8.90256 36978 ft 449 kts 216°
2026-05-06 10:44 39.05276 -8.96870 36982 ft 449 kts 216°
2026-05-06 10:44 39.00049 -9.01282 36989 ft 449 kts 216°
2026-05-06 10:45 38.94835 -9.05677 36993 ft 448 kts 216°
2026-05-06 10:45 38.89618 -9.10068 36989 ft 448 kts 216°
2026-05-06 10:46 38.84409 -9.14442 36993 ft 449 kts 216°
2026-05-06 10:46 38.79177 -9.18826 36996 ft 450 kts 216°
2026-05-06 10:47 38.73951 -9.23199 37002 ft 450 kts 216°
2026-05-06 10:47 38.68729 -9.27562 37002 ft 450 kts 216°
2026-05-06 10:48 38.63501 -9.31919 36999 ft 450 kts 216°
2026-05-06 10:48 38.58263 -9.36278 36999 ft 449 kts 216°
2026-05-06 10:49 38.53014 -9.40639 37009 ft 450 kts 216°
2026-05-06 10:49 38.47757 -9.44998 37013 ft 450 kts 216°
2026-05-06 10:50 38.42528 -9.49328 37012 ft 451 kts 216°
2026-05-06 10:50 38.37259 -9.53683 37014 ft 451 kts 216°
2026-05-06 10:51 38.32016 -9.58008 37014 ft 451 kts 216°
2026-05-06 10:51 38.26743 -9.62351 37012 ft 451 kts 216°
2026-05-06 10:52 38.21489 -9.66670 37010 ft 451 kts 216°
2026-05-06 10:52 38.16188 -9.71021 37007 ft 452 kts 216°
2026-05-06 10:53 38.10906 -9.75349 37011 ft 452 kts 216°
2026-05-06 10:53 38.05640 -9.79656 37013 ft 452 kts 216°
2026-05-06 10:54 38.00355 -9.83971 37012 ft 452 kts 216°
2026-05-06 10:54 37.95074 -9.88275 37012 ft 453 kts 216°
2026-05-06 10:55 37.89761 -9.92597 37014 ft 453 kts 216°
2026-05-06 10:55 37.84470 -9.96895 37016 ft 454 kts 216°
2026-05-06 10:56 37.79144 -10.01213 37015 ft 454 kts 216°
2026-05-06 10:56 37.73843 -10.05502 37015 ft 453 kts 216°
2026-05-06 10:57 37.68540 -10.09787 37017 ft 454 kts 216°
2026-05-06 10:57 37.63207 -10.14091 37020 ft 454 kts 216°
2026-05-06 10:58 37.57911 -10.18355 37022 ft 454 kts 216°
2026-05-06 10:58 37.52579 -10.22641 37019 ft 454 kts 216°
2026-05-06 10:59 37.47252 -10.26915 37020 ft 455 kts 216°
2026-05-06 10:59 37.41947 -10.31164 37022 ft 455 kts 216°
2026-05-06 11:00 37.36604 -10.35436 37025 ft 455 kts 216°
2026-05-06 11:00 37.31249 -10.39713 37023 ft 455 kts 216°
2026-05-06 11:01 37.25925 -10.43955 37024 ft 455 kts 216°
2026-05-06 11:01 37.20571 -10.48215 37024 ft 455 kts 216°
2026-05-06 11:02 37.15252 -10.52441 37024 ft 456 kts 216°
2026-05-06 11:02 37.09878 -10.56702 37028 ft 456 kts 216°
2026-05-06 11:03 37.04507 -10.60953 37030 ft 457 kts 216°
2026-05-06 11:03 36.99160 -10.65178 37029 ft 457 kts 215°
2026-05-06 11:04 36.93774 -10.69426 37029 ft 457 kts 215°
2026-05-06 11:04 36.88400 -10.73660 37032 ft 456 kts 215°
2026-05-06 11:05 36.83036 -10.77876 37030 ft 456 kts 215°
2026-05-06 11:05 36.77672 -10.82085 37035 ft 456 kts 215°
2026-05-06 11:06 36.72298 -10.86299 37031 ft 457 kts 215°
2026-05-06 11:06 36.66918 -10.90508 37033 ft 457 kts 215°
2026-05-06 11:07 36.61557 -10.94693 37035 ft 458 kts 215°
2026-05-06 11:07 36.56157 -10.98904 37033 ft 457 kts 215°
2026-05-06 11:08 36.50795 -11.03078 37038 ft 457 kts 215°
2026-05-06 11:08 36.45385 -11.07283 37038 ft 457 kts 215°
2026-05-06 11:09 36.40020 -11.11445 37039 ft 457 kts 215°
2026-05-06 11:09 36.34615 -11.15630 37042 ft 457 kts 215°
2026-05-06 11:10 36.29239 -11.19788 37038 ft 457 kts 215°
2026-05-06 11:10 36.23865 -11.23938 37035 ft 457 kts 215°
2026-05-06 11:11 36.18438 -11.28120 37039 ft 458 kts 215°
2026-05-06 11:11 36.13058 -11.32262 37038 ft 458 kts 215°
2026-05-06 11:12 36.07643 -11.36421 37034 ft 457 kts 215°
2026-05-06 11:12 36.02245 -11.40562 37032 ft 458 kts 215°
2026-05-06 11:13 35.96865 -11.44722 37031 ft 457 kts 217°
2026-05-06 11:13 35.91673 -11.49243 37041 ft 456 kts 219°
2026-05-06 11:14 35.86523 -11.53784 37031 ft 456 kts 219°
2026-05-06 11:14 35.81358 -11.58332 37031 ft 456 kts 219°
2026-05-06 11:15 35.76227 -11.62845 37035 ft 456 kts 219°
2026-05-06 11:15 35.71037 -11.67402 37044 ft 456 kts 218°
2026-05-06 11:16 35.65878 -11.71925 37031 ft 455 kts 218°
2026-05-06 11:16 35.60734 -11.76428 37032 ft 455 kts 218°
2026-05-06 11:17 35.55570 -11.80940 37039 ft 456 kts 218°
2026-05-06 11:17 35.50405 -11.85445 37036 ft 455 kts 218°
2026-05-06 11:18 35.45261 -11.89926 37037 ft 455 kts 218°
2026-05-06 11:18 35.40107 -11.94408 37031 ft 455 kts 218°
2026-05-06 11:19 35.34934 -11.98900 37040 ft 455 kts 218°
2026-05-06 11:19 35.29789 -12.03361 37033 ft 456 kts 218°
2026-05-06 11:20 35.24622 -12.07834 37040 ft 456 kts 218°
2026-05-06 11:20 35.19426 -12.12322 37039 ft 456 kts 218°
2026-05-06 11:21 35.14242 -12.16794 37042 ft 456 kts 218°
2026-05-06 11:21 35.09087 -12.21233 37048 ft 456 kts 218°
2026-05-06 11:22 35.03921 -12.25675 37038 ft 456 kts 218°
2026-05-06 11:22 34.98717 -12.30146 37048 ft 456 kts 218°
2026-05-06 11:23 34.93553 -12.34572 37046 ft 456 kts 218°
2026-05-06 11:23 34.88380 -12.39001 37045 ft 455 kts 218°
2026-05-06 11:24 34.83207 -12.43421 37053 ft 455 kts 218°
2026-05-06 11:24 34.78023 -12.47845 37060 ft 456 kts 218°
2026-05-06 11:25 34.72834 -12.52266 37058 ft 456 kts 218°
2026-05-06 11:25 34.67623 -12.56698 37058 ft 456 kts 218°
2026-05-06 11:26 34.62458 -12.61084 37060 ft 455 kts 218°
2026-05-06 11:26 34.57262 -12.65489 37058 ft 455 kts 218°
2026-05-06 11:27 34.52087 -12.69871 37065 ft 456 kts 218°
2026-05-06 11:27 34.46873 -12.74280 37067 ft 456 kts 218°
2026-05-06 11:28 34.41697 -12.78647 37067 ft 456 kts 218°
2026-05-06 11:28 34.36476 -12.83048 37072 ft 456 kts 218°
2026-05-06 11:29 34.31282 -12.87419 37073 ft 456 kts 218°
2026-05-06 11:29 34.26063 -12.91804 37070 ft 456 kts 217°
2026-05-06 11:30 34.20879 -12.96152 37077 ft 456 kts 218°
2026-05-06 11:30 34.15676 -13.00508 37077 ft 456 kts 218°
2026-05-06 11:31 34.10452 -13.04877 37076 ft 456 kts 218°
2026-05-06 11:31 34.05222 -13.09243 37076 ft 456 kts 218°
2026-05-06 11:32 34.00039 -13.13566 37076 ft 456 kts 218°
2026-05-06 11:32 33.94807 -13.17922 37075 ft 457 kts 218°
2026-05-06 11:33 33.89595 -13.22254 37074 ft 457 kts 218°
2026-05-06 11:33 33.84374 -13.26587 37073 ft 456 kts 218°
2026-05-06 11:34 33.79139 -13.30924 37073 ft 456 kts 218°
2026-05-06 11:34 33.73939 -13.35227 37068 ft 456 kts 218°
2026-05-06 11:35 33.68685 -13.39566 37063 ft 456 kts 218°
2026-05-06 11:35 33.63457 -13.43880 37062 ft 456 kts 218°
2026-05-06 11:36 33.58234 -13.48183 37063 ft 456 kts 218°
2026-05-06 11:36 33.53016 -13.52476 37065 ft 456 kts 218°
2026-05-06 11:37 33.47801 -13.56757 37065 ft 456 kts 218°
2026-05-06 11:37 33.42571 -13.61046 37069 ft 457 kts 218°
2026-05-06 11:38 33.37331 -13.65338 37070 ft 458 kts 217°
2026-05-06 11:38 33.32062 -13.69644 37069 ft 458 kts 217°
2026-05-06 11:39 33.26818 -13.73927 37068 ft 457 kts 217°
2026-05-06 11:39 33.21568 -13.78206 37072 ft 457 kts 217°
2026-05-06 11:40 33.16313 -13.82484 37070 ft 457 kts 217°
2026-05-06 11:40 33.11053 -13.86758 37072 ft 458 kts 217°
2026-05-06 11:41 33.05778 -13.91039 37073 ft 458 kts 217°
2026-05-06 11:41 33.00518 -13.95301 37074 ft 458 kts 217°
2026-05-06 11:42 32.95252 -13.99563 37074 ft 458 kts 217°
2026-05-06 11:42 32.89982 -14.03821 37074 ft 458 kts 217°
2026-05-06 11:43 32.84707 -14.08077 37074 ft 458 kts 217°
2026-05-06 11:43 32.79465 -14.12300 37074 ft 458 kts 217°
2026-05-06 11:44 32.71525 -14.18684 37073 ft 458 kts 217°
2026-05-06 11:44 32.66248 -14.22921 37073 ft 458 kts 217°
2026-05-06 11:45 32.60992 -14.27134 37072 ft 459 kts 217°
2026-05-06 11:45 32.55666 -14.31398 37072 ft 459 kts 217°
2026-05-06 11:46 32.50390 -14.35613 37076 ft 460 kts 217°
2026-05-06 11:46 32.45108 -14.39829 37069 ft 459 kts 217°
2026-05-06 11:47 32.39800 -14.44060 37071 ft 460 kts 217°
2026-05-06 11:47 32.34444 -14.48322 37065 ft 460 kts 217°
2026-05-06 11:48 32.29136 -14.52540 37063 ft 460 kts 217°
2026-05-06 11:48 32.23847 -14.56736 37066 ft 460 kts 217°
2026-05-06 11:49 32.18528 -14.60952 37068 ft 461 kts 217°
2026-05-06 11:49 32.13198 -14.65170 37073 ft 461 kts 217°
2026-05-06 11:50 32.07842 -14.69400 37065 ft 462 kts 217°
2026-05-06 11:50 32.02503 -14.73611 37066 ft 462 kts 217°
2026-05-06 11:51 31.97167 -14.77816 37069 ft 462 kts 217°
2026-05-06 11:51 31.91836 -14.82011 37070 ft 462 kts 216°
2026-05-06 11:52 31.86507 -14.86197 37068 ft 462 kts 217°
2026-05-06 11:52 31.81138 -14.90410 37065 ft 461 kts 217°
2026-05-06 11:53 31.75798 -14.94593 37062 ft 462 kts 217°
2026-05-06 11:53 31.70433 -14.98788 37061 ft 463 kts 217°
2026-05-06 11:54 31.65079 -15.02971 37062 ft 463 kts 217°
2026-05-06 11:54 31.59733 -15.07143 37060 ft 464 kts 217°
2026-05-06 11:55 31.54362 -15.11327 37056 ft 463 kts 217°
2026-05-06 11:55 31.49019 -15.15484 37056 ft 463 kts 217°
2026-05-06 11:56 31.43646 -15.19657 37050 ft 463 kts 217°
2026-05-06 11:56 31.38294 -15.23813 37051 ft 464 kts 217°
2026-05-06 11:57 31.32887 -15.28001 37052 ft 465 kts 217°
2026-05-06 11:57 31.27362 -15.31912 37046 ft 468 kts 212°
2026-05-06 11:58 31.21640 -15.35563 37046 ft 468 kts 212°
2026-05-06 11:58 31.15942 -15.39194 37047 ft 468 kts 212°
2026-05-06 11:59 31.10214 -15.42841 37044 ft 468 kts 212°
2026-05-06 11:59 31.04499 -15.46476 37040 ft 468 kts 212°
2026-05-06 12:00 30.98795 -15.50098 37042 ft 468 kts 212°
2026-05-06 12:00 30.93050 -15.53742 37047 ft 470 kts 212°
2026-05-06 12:01 30.87332 -15.57362 37039 ft 470 kts 212°
2026-05-06 12:01 30.81556 -15.61015 37044 ft 470 kts 212°
2026-05-06 12:02 30.75793 -15.64656 37040 ft 470 kts 212°
2026-05-06 12:02 30.70058 -15.68275 37041 ft 469 kts 211°
2026-05-06 12:03 30.64324 -15.71884 37042 ft 469 kts 211°
2026-05-06 12:03 30.58557 -15.75513 37047 ft 469 kts 211°
2026-05-06 12:04 30.52850 -15.79098 37047 ft 469 kts 211°
2026-05-06 12:04 30.47103 -15.82703 37043 ft 470 kts 211°
2026-05-06 12:05 30.41351 -15.86306 37044 ft 470 kts 211°
2026-05-06 12:05 30.35608 -15.89900 37044 ft 470 kts 211°
2026-05-06 12:06 30.29877 -15.93480 37042 ft 469 kts 211°
2026-05-06 12:06 30.24119 -15.97073 37043 ft 469 kts 211°
2026-05-06 12:07 30.18392 -16.00641 37042 ft 469 kts 211°
2026-05-06 12:07 30.12643 -16.04221 37028 ft 470 kts 211°
2026-05-06 12:08 30.06873 -16.07806 37019 ft 471 kts 211°
2026-05-06 12:08 30.01077 -16.11403 37020 ft 472 kts 211°
2026-05-06 12:09 29.95322 -16.14969 37022 ft 471 kts 211°
2026-05-06 12:09 29.89549 -16.18545 37022 ft 471 kts 211°
2026-05-06 12:10 29.83729 -16.22143 37028 ft 471 kts 211°
2026-05-06 12:10 29.77916 -16.25733 37022 ft 473 kts 211°
2026-05-06 12:11 29.72105 -16.29315 37022 ft 472 kts 211°
2026-05-06 12:11 29.69226 -16.31088 36898 ft 473 kts 211°
2026-05-06 12:11 29.66353 -16.32859 36618 ft 470 kts 211°
2026-05-06 12:12 29.63459 -16.34647 36328 ft 467 kts 212°
2026-05-06 12:12 29.60674 -16.36528 36051 ft 462 kts 215°
2026-05-06 12:12 29.58009 -16.38563 35808 ft 459 kts 219°
2026-05-06 12:12 29.55459 -16.40754 35577 ft 456 kts 222°
2026-05-06 12:13 29.53025 -16.43036 35355 ft 455 kts 223°
2026-05-06 12:13 29.50590 -16.45339 35134 ft 455 kts 223°
2026-05-06 12:13 29.48154 -16.47642 34909 ft 454 kts 223°
2026-05-06 12:13 29.45720 -16.49941 34684 ft 452 kts 223°
2026-05-06 12:14 29.43290 -16.52233 34461 ft 451 kts 223°
2026-05-06 12:14 29.40856 -16.54528 34236 ft 451 kts 223°
2026-05-06 12:14 29.38463 -16.56781 34013 ft 450 kts 223°
2026-05-06 12:14 29.36027 -16.59071 33756 ft 449 kts 223°
2026-05-06 12:15 29.33613 -16.61338 33497 ft 447 kts 223°
2026-05-06 12:15 29.31224 -16.63581 33241 ft 446 kts 223°
2026-05-06 12:15 29.28822 -16.65833 32985 ft 445 kts 222°
2026-05-06 12:15 29.26434 -16.68072 32727 ft 443 kts 222°
2026-05-06 12:16 29.24054 -16.70305 32469 ft 442 kts 222°
2026-05-06 12:16 29.21684 -16.72525 32213 ft 440 kts 222°
2026-05-06 12:16 29.19319 -16.74737 31954 ft 438 kts 222°
2026-05-06 12:16 29.16961 -16.76945 31696 ft 437 kts 222°
2026-05-06 12:17 29.14638 -16.79117 31438 ft 436 kts 222°
2026-05-06 12:17 29.12285 -16.81318 31181 ft 435 kts 222°
2026-05-06 12:17 29.09937 -16.83510 30918 ft 432 kts 222°
2026-05-06 12:17 29.07607 -16.85684 30601 ft 433 kts 222°
2026-05-06 12:18 29.05287 -16.87849 30141 ft 432 kts 222°
2026-05-06 12:18 29.02956 -16.90022 29602 ft 430 kts 222°
2026-05-06 12:18 29.00678 -16.92142 29194 ft 425 kts 222°
2026-05-06 12:18 28.98378 -16.94282 28725 ft 422 kts 222°
2026-05-06 12:19 28.96139 -16.96366 28276 ft 417 kts 222°
2026-05-06 12:19 28.93900 -16.98448 27839 ft 413 kts 222°
2026-05-06 12:19 28.91687 -17.00504 27412 ft 408 kts 222°
2026-05-06 12:19 28.89498 -17.02537 26993 ft 404 kts 222°
2026-05-06 12:20 28.87331 -17.04548 26543 ft 400 kts 222°
2026-05-06 12:20 28.85189 -17.06534 26094 ft 396 kts 222°
2026-05-06 12:20 28.83061 -17.08510 25659 ft 391 kts 222°
2026-05-06 12:20 28.80956 -17.10461 25224 ft 387 kts 222°
2026-05-06 12:21 28.78882 -17.12382 24797 ft 383 kts 222°
2026-05-06 12:21 28.76832 -17.14279 24355 ft 379 kts 222°
2026-05-06 12:21 28.74804 -17.16157 23924 ft 375 kts 223°
2026-05-06 12:21 28.72783 -17.18026 23466 ft 372 kts 223°
2026-05-06 12:22 28.70779 -17.19881 23002 ft 369 kts 223°
2026-05-06 12:22 28.68794 -17.21715 22545 ft 367 kts 223°
2026-05-06 12:22 28.66816 -17.23543 22080 ft 365 kts 223°
2026-05-06 12:22 28.64860 -17.25352 21625 ft 362 kts 223°
2026-05-06 12:23 28.62921 -17.27140 21178 ft 360 kts 223°
2026-05-06 12:23 28.60977 -17.28934 20737 ft 357 kts 223°
2026-05-06 12:23 28.59044 -17.30714 20289 ft 355 kts 222°
2026-05-06 12:23 28.57153 -17.32458 19849 ft 352 kts 222°
2026-05-06 12:24 28.55248 -17.34214 19400 ft 350 kts 223°
2026-05-06 12:24 28.53370 -17.35942 18954 ft 348 kts 223°
2026-05-06 12:24 28.51488 -17.37673 18517 ft 346 kts 222°
2026-05-06 12:24 28.49629 -17.39384 18085 ft 343 kts 222°
2026-05-06 12:25 28.47646 -17.40844 17601 ft 347 kts 205°
2026-05-06 12:25 28.45260 -17.41429 17141 ft 352 kts 183°
2026-05-06 12:25 28.42864 -17.41020 16716 ft 354 kts 162°
2026-05-06 12:25 28.40716 -17.39662 16279 ft 354 kts 140°
2026-05-06 12:26 28.39117 -17.37524 15847 ft 353 kts 122°
2026-05-06 12:26 28.37900 -17.35133 15459 ft 350 kts 119°
2026-05-06 12:26 28.36715 -17.32730 15016 ft 349 kts 120°
2026-05-06 12:26 28.35528 -17.30367 14608 ft 347 kts 120°
2026-05-06 12:27 28.34313 -17.27996 14263 ft 345 kts 120°
2026-05-06 12:27 28.33108 -17.25666 13847 ft 343 kts 120°
2026-05-06 12:27 28.31910 -17.23360 13451 ft 341 kts 120°
2026-05-06 12:27 28.30705 -17.21043 13049 ft 339 kts 120°
2026-05-06 12:28 28.29514 -17.18752 12714 ft 335 kts 120°
2026-05-06 12:28 28.28328 -17.16474 12320 ft 334 kts 120°
2026-05-06 12:28 28.27153 -17.14215 11938 ft 332 kts 121°
2026-05-06 12:28 28.25949 -17.12015 11602 ft 328 kts 124°
2026-05-06 12:29 28.24663 -17.09889 11232 ft 326 kts 125°
2026-05-06 12:29 28.23374 -17.07788 10871 ft 323 kts 125°
2026-05-06 12:29 28.22093 -17.05705 10488 ft 323 kts 125°
2026-05-06 12:29 28.20814 -17.03620 10125 ft 320 kts 125°
2026-05-06 12:30 28.19543 -17.01547 9899 ft 316 kts 125°
2026-05-06 12:30 28.18298 -16.99515 9804 ft 317 kts 125°
2026-05-06 12:30 28.16939 -16.97514 9682 ft 317 kts 138°
2026-05-06 12:30 28.15099 -16.96246 9531 ft 312 kts 160°
2026-05-06 12:31 28.13060 -16.95374 9207 ft 312 kts 161°
2026-05-06 12:31 28.11033 -16.94516 8799 ft 311 kts 160°
2026-05-06 12:31 28.08997 -16.93636 8427 ft 309 kts 160°
2026-05-06 12:31 28.07005 -16.92760 8020 ft 308 kts 159°
2026-05-06 12:32 28.05027 -16.91882 7652 ft 306 kts 159°
2026-05-06 12:32 28.03013 -16.91105 7249 ft 304 kts 171°
2026-05-06 12:32 28.00953 -16.91295 6879 ft 297 kts 204°
2026-05-06 12:32 27.99341 -16.92695 6863 ft 294 kts 236°
2026-05-06 12:33 27.98592 -16.94824 6820 ft 292 kts 261°
2026-05-06 12:33 27.98169 -16.97048 6603 ft 292 kts 250°
2026-05-06 12:33 27.96968 -16.98906 6379 ft 295 kts 217°
2026-05-06 12:33 27.95092 -16.99765 6185 ft 297 kts 185°
2026-05-06 12:34 27.93057 -16.99382 5978 ft 297 kts 153°
2026-05-06 12:34 27.91478 -16.97949 5793 ft 295 kts 129°
2026-05-06 12:34 27.90341 -16.96033 5588 ft 293 kts 114°
2026-05-06 12:34 27.89702 -16.93879 5370 ft 290 kts 97°